{"data":{"norad_id":63945,"intl_designator":"2025-098V","name":"STARLINK-34036","alt_names":[],"object_type":"PAYLOAD","status":"ACTIVE","operator":null,"country":"US","launch_date":"2025-05-13","launch_site_code":"AFWTR","launch_vehicle":null,"mission":null,"orbit_class":"UNKNOWN","rcs_meters":null,"size_class":null,"mass_kg":null,"dimensions":null,"purposes":["comms"],"wikipedia_slug":null,"has_3d_model":false,"image_url":null,"decayed_at":null,"tle_current":{"epoch":"2026-09-20T22:36:28.388736Z","epoch_age_seconds":108902,"freshness":"FRESH","line1":"1 63945U 25098V   26263.94199524  .00004730  00000+0  16882-3 0  9994","line2":"2 63945  69.9998 139.5971 0003122 273.1623  86.9194 15.29591942 75866","mean_motion":15.29591942,"eccentricity":0.0003122,"inclination_deg":69.9998,"raan_deg":139.5971,"arg_perigee_deg":273.1623,"mean_anomaly_deg":86.9194,"bstar":0.00016882,"rev_number":7586,"period_min":94.142755362397,"perigee_km":474.89103890471,"apogee_km":479.17140594279,"semimajor_km":6855.1682224238,"source":"CELESTRAK","updated_at":"2026-09-21T09:00:35.152776Z"}}}